Theta_e
287 288 288 288 288 288 288 288 289 289 290 290 290 290 291 291 291 291 291 291 291 291 291 291 291 290 289 288 288 288 288 288 288 287 287 287 287 288 288 288 287 287 288 288 288 288 288 287 288 288 289 289 289 290 290 290 290 290 290 290 291 291 291
286 286 286 287 287 287 287 288 288 288 289 289 289 289 289 290 290 290 290 290 290 290 290 290 289 289 288 288 288 288 289 289 289 288 288 288 288 288 288 288 288 288 288 288 288 288 288 287 287 288 288 289 289 290 290 290 290 290 290 291 291 291 291
284 285 285 285 285 286 286 286 287 287 287 288 288 288 288 289 289 289 289 289 289 289 289 289 289 289 289 288 288 289 289 289 289 289 289 289 288 288 288 288 288 287 287 288 288 288 288 288 288 288 288 288 289 289 289 289 290 290 290 290 290 290 290
282 282 283 283 283 284 284 284 285 285 285 286 286 287 287 287 287 288 288 288 288 288 289 289 289 289 288 289 289 289 289 288 289 289 289 289 288 288 288 288 287 287 287 287 287 288 288 288 288 288 288 288 288 289 289 289 289 289 290 290 290 290 290
281 281 281 282 282 282 282 282 283 283 283 284 284 285 285 285 286 286 286 287 287 287 287 288 288 288 288 288 288 288 288 288 288 288 288 288 288 288 288 288 288 288 287 287 287 287 287 287 288 288 287 287 287 288 288 288 289 289 289 289 290 290 290
280 280 281 281 281 281 281 281 281 281 281 282 282 282 283 283 284 284 284 285 285 286 286 286 286 286 287 287 287 287 287 288 288 288 288 288 288 288 288 288 288 288 288 287 287 287 287 287 288 288 287 287 287 287 288 288 288 288 289 289 289 290 290
279 279 279 280 280 280 280 280 280 281 280 280 281 281 281 281 281 282 282 282 283 283 284 285 285 285 285 285 285 286 286 286 286 287 287 287 287 287 287 287 287 287 287 287 287 287 287 287 288 288 288 287 287 287 287 288 288 288 288 289 289 289 290
277 277 278 278 278 278 278 279 279 280 280 280 280 280 280 280 280 281 281 281 281 281 282 282 283 283 284 284 284 285 285 285 285 285 285 285 285 286 286 286 287 287 287 287 287 287 287 287 287 288 288 288 288 287 287 288 288 288 289 289 289 290 290
276 276 276 276 277 277 277 277 277 277 278 279 279 280 280 280 280 280 281 281 281 281 281 281 281 281 281 282 282 283 283 284 284 284 284 284 284 284 284 284 285 285 285 286 286 286 287 286 287 287 288 288 288 288 288 288 288 288 289 289 289 289 289
275 275 276 276 276 276 276 276 276 276 276 276 277 277 278 279 279 280 280 280 281 281 281 280 280 280 280 280 280 281 281 282 282 283 283 283 283 283 283 283 283 283 284 284 284 285 285 285 285 286 286 286 287 287 287 287 286 287 288 288 288 288 288
274 275 275 275 275 275 275 275 275 275 275 275 275 275 276 276 277 278 279 279 279 279 280 280 280 280 280 280 280 280 280 280 280 281 281 282 282 283 283 283 282 282 282 282 283 283 283 283 284 284 284 284 285 285 285 285 285 285 286 286 286 286 286
274 274 274 274 274 274 275 274 274 274 274 274 274 274 275 275 276 276 277 277 277 277 277 278 278 279 279 279 280 280 280 280 279 279 279 280 280 281 281 282 282 282 282 282 282 282 282 283 283 283 283 283 283 284 284 284 284 284 284 285 285 285 285
273 273 273 273 274 274 274 273 273 273 273 273 273 273 273 274 274 275 275 276 276 275 276 276 276 276 277 277 277 278 278 279 279 279 279 279 279 279 280 280 280 281 281 281 281 281 282 282 282 282 282 282 283 283 283 283 283 283 284 284 284 284 284
272 272 272 272 273 273 273 272 272 272 272 272 272 272 272 273 273 273 273 274 274 274 274 274 274 274 275 275 275 275 276 276 277 278 278 278 278 278 278 278 279 279 280 280 281 281 281 282 281 281 282 282 282 282 282 283 283 283 283 283 283 283 283
270 270 270 271 271 271 272 271 271 271 271 270 270 270 271 271 272 272 272 272 272 272 272 272 272 272 273 273 273 274 274 274 274 275 276 277 277 277 277 277 277 278 278 278 279 279 280 280 281 281 281 281 281 282 282 282 282 282 282 282 282 282 282
268 269 269 269 269 269 269 270 270 269 269 269 269 269 269 270 270 270 270 270 270 270 271 271 271 271 271 271 272 272 272 272 273 273 273 274 275 275 276 276 276 276 277 277 277 278 278 278 279 279 279 280 280 280 281 281 281 282 281 281 281 281 281
267 267 267 268 268 267 268 268 268 268 268 268 268 268 268 268 269 269 269 269 269 269 269 269 269 270 270 270 270 271 271 271 272 272 272 272 272 273 273 274 275 275 275 275 276 276 277 277 277 277 277 278 278 278 279 279 279 280 280 280 280 280 281
266 266 266 266 266 266 266 266 266 266 266 266 266 266 266 267 267 267 267 268 268 267 268 268 268 269 269 269 269 270 270 270 270 270 270 270 270 271 271 272 273 273 273 274 274 275 275 275 276 276 276 276 277 277 277 277 278 278 279 279 279 279 279
265 265 265 265 265 265 265 265 265 265 265 265 265 265 265 266 266 266 266 266 267 267 267 267 268 268 268 268 268 268 269 269 269 269 269 269 269 270 270 271 271 271 271 272 273 273 274 274 274 275 275 275 275 275 276 276 277 277 278 278 278 278 278
264 264 264 264 264 264 264 264 264 265 265 265 265 265 265 265 265 265 265 266 266 266 266 267 267 267 267 267 267 267 267 268 268 268 268 269 269 269 269 270 270 270 270 270 271 272 272 273 273 273 273 273 273 274 274 275 275 276 276 277 278 278 278
263 263 263 263 263 264 264 264 264 264 264 264 264 264 264 264 264 264 265 265 265 265 265 265 265 266 266 266 266 266 266 267 267 267 267 268 268 268 268 268 268 269 269 269 270 270 271 271 271 272 272 272 272 273 273 273 274 274 275 275 276 277 278
262 262 263 263 263 263 263 263 263 263 262 263 263 263 263 263 263 264 264 264 263 263 264 264 264 265 265 265 265 265 265 266 267 266 266 267 267 267 267 267 267 268 268 268 269 269 270 270 270 271 271 271 271 272 272 272 273 273 274 274 275 275 276
261 261 261 261 261 261 262 262 262 261 261 261 262 262 263 263 263 263 263 262 262 263 263 263 264 264 264 264 264 265 265 266 266 265 266 266 267 266 266 266 267 267 267 267 268 268 269 269 270 270 270 270 270 271 271 271 272 272 273 273 274 274 274
260 260 260 260 260 260 260 260 260 260 260 261 261 261 262 262 262 262 262 262 262 262 262 263 263 263 263 263 264 264 265 265 265 264 265 266 266 266 266 266 266 266 266 266 266 267 268 268 269 269 269 269 269 270 270 270 271 272 273 273 274 274 274
259 259 259 259 259 259 259 259 259 259 259 260 260 260 261 261 261 261 261 261 261 262 262 262 262 262 262 262 263 263 264 264 264 264 265 265 265 265 265 266 266 266 266 266 266 266 266 267 267 268 268 268 268 269 269 270 270 271 272 274 274 275 275
258 258 258 258 258 258 258 258 258 259 259 259 259 259 260 260 260 260 261 261 261 261 261 261 261 261 261 262 262 262 263 263 264 264 264 265 265 265 265 265 265 265 265 266 266 266 266 266 267 267 267 268 268 268 268 269 269 270 270 272 273 274 274
258 258 258 258 258 258 258 258 258 258 258 258 259 259 259 259 259 260 260 260 260 260 260 260 261 261 261 262 262 262 263 263 263 263 263 264 264 264 265 265 265 265 265 266 266 266 266 267 267 267 267 267 267 267 268 268 269 269 270 270 271 272 272
257 257 257 257 257 257 257 257 258 258 258 258 258 258 258 258 258 259 259 259 259 260 260 260 260 260 261 261 262 262 262 262 263 263 263 263 263 263 264 264 264 265 265 266 266 266 267 267 267 267 267 267 267 268 268 268 269 269 269 270 270 271 271
256 256 256 256 256 256 257 257 257 257 257 257 257 257 258 257 257 258 258 258 258 258 258 258 259 259 259 260 261 261 262 262 262 262 262 262 263 263 263 263 264 264 264 265 265 266 266 266 267 267 267 267 267 267 268 268 268 269 269 270 270 271 271
256 256 256 256 256 256 256 256 256 256 256 256 257 257 257 257 257 257 257 257 257 257 257 258 258 258 258 259 260 261 261 261 262 262 262 262 262 262 262 263 263 263 264 265 265 265 266 266 266 266 266 266 266 266 267 267 268 268 269 269 270 270 271
255 255 256 256 256 256 256 256 256 256 256 256 256 256 256 256 256 256 257 257 257 257 257 257 257 258 258 259 259 260 261 261 261 261 261 261 261 261 262 262 262 263 263 264 264 265 265 265 266 266 266 266 266 266 266 267 267 268 268 268 269 269 269
255 255 255 255 255 255 255 256 256 256 256 256 256 256 256 255 255 256 256 256 256 256 256 257 257 257 258 258 259 259 260 260 260 261 261 261 261 261 261 261 261 262 262 263 263 264 264 265 265 266 266 265 266 266 266 266 267 267 267 267 267 268 268
254 254 254 255 255 255 255 255 255 255 255 255 255 255 255 255 255 256 256 256 256 256 256 256 257 257 257 258 258 258 259 259 260 260 260 260 260 260 260 260 260 261 261 262 262 263 263 264 264 265 265 265 265 266 266 266 266 267 267 267 267 267 267
254 254 254 254 254 254 254 254 254 254 254 254 254 254 255 255 255 255 255 255 255 256 256 256 256 257 257 257 258 258 258 259 259 259 259 259 259 259 259 260 260 260 260 261 261 262 262 263 263 264 264 264 265 265 265 265 266 266 266 267 267 267 266
253 253 253 253 253 253 254 254 254 254 254 254 254 254 254 254 254 255 255 255 255 255 255 256 256 256 257 257 257 258 258 258 258 258 258 259 259 259 259 259 259 259 260 260 260 261 261 262 262 263 263 264 264 265 265 265 265 265 266 266 266 266 266
252 252 252 252 252 253 253 253 253 253 253 253 254 254 254 254 254 254 254 255 255 255 255 255 256 256 256 256 257 257 257 258 258 258 258 258 258 258 258 258 258 259 259 259 259 260 260 261 262 262 263 263 263 264 264 264 264 265 265 265 266 266 266
Wind_Speed
3 3 4 5 7 8 9 10 11 11 12 13 14 14 14 14 14 15 16 17 19 20 21 23 24 25 26 26 27 27 27 28 28 28 29 29 29 30 30 31 32 36 39 38 36 35 34 30 27 28 30 32 31 31 31 31 32 32 32 33 34 35 35
3 3 4 4 5 6 7 9 10 12 13 14 15 15 15 15 16 16 17 17 18 19 20 21 23 25 25 26 27 28 29 30 30 30 31 32 32 33 33 33 33 35 38 40 37 35 34 34 32 31 32 33 34 34 32 33 34 34 35 37 37 37 37
5 5 4 5 5 5 6 7 8 10 11 13 14 15 16 16 17 17 17 18 18 18 19 20 21 23 23 25 26 28 28 29 30 31 32 33 34 34 34 34 34 35 37 38 38 35 35 36 36 35 34 34 34 34 33 33 33 34 35 37 38 38 38
7 6 6 6 6 6 6 7 7 8 9 10 11 12 12 13 14 16 17 17 18 18 19 19 20 21 22 23 24 25 26 26 28 29 30 32 33 33 34 34 34 35 36 36 37 35 34 33 33 31 30 30 31 32 33 33 32 32 34 35 36 36 37
8 8 8 8 8 8 9 9 9 9 10 10 11 11 11 11 12 13 14 15 16 17 18 19 20 20 21 22 23 23 24 24 25 26 27 29 30 31 32 32 33 34 35 35 35 35 32 31 30 28 25 25 27 30 33 34 34 34 35 35 36 36 37
10 11 11 11 11 11 11 11 12 11 12 13 13 13 13 13 13 13 13 14 15 15 16 16 17 18 19 20 21 22 23 23 24 25 26 27 28 28 29 29 30 31 33 35 37 37 35 33 33 31 28 25 25 28 32 34 34 35 36 37 38 38 38
12 12 12 13 13 13 13 14 14 14 14 15 15 16 16 15 16 16 16 16 16 16 17 16 16 16 17 18 19 20 21 22 23 24 25 25 26 27 28 29 30 30 31 33 36 37 38 37 37 36 35 32 28 29 32 34 35 35 37 38 39 40 40
15 15 15 15 15 15 15 16 16 17 17 18 18 18 19 19 19 19 18 18 18 19 19 19 19 18 18 18 18 19 19 20 21 22 23 24 24 25 26 28 29 30 31 32 34 36 37 37 37 38 39 38 35 34 35 37 38 39 40 40 40 41 40
17 18 17 17 17 17 18 18 18 19 19 19 20 21 21 22 22 22 22 22 21 21 21 21 21 21 20 20 20 20 20 20 20 21 22 22 23 24 26 27 27 28 29 30 32 34 34 34 35 36 36 37 37 37 37 37 37 39 41 40 40 41 40
20 20 21 21 20 20 20 20 20 21 21 21 22 23 23 24 25 25 25 25 25 24 24 24 24 24 24 23 22 22 23 23 22 22 23 23 23 23 24 26 27 27 28 28 30 32 32 32 33 34 32 33 33 33 33 34 34 36 37 37 39 41 40
22 23 23 24 23 23 23 23 23 23 23 23 23 25 26 27 28 28 27 27 26 26 26 25 25 26 26 26 26 25 24 24 24 24 25 24 24 24 24 25 26 27 28 28 29 30 30 30 32 31 29 29 29 28 29 31 33 34 35 35 38 41 40
26 26 27 27 26 26 26 25 25 25 25 25 25 26 27 29 30 30 30 29 28 28 27 27 27 27 26 27 27 27 27 26 26 26 26 27 26 26 26 26 26 28 28 29 29 30 30 30 30 29 27 26 25 26 27 30 32 34 34 35 37 40 40
29 30 30 30 30 29 28 27 26 26 26 26 26 26 27 30 31 32 31 31 30 30 29 28 28 29 29 29 28 28 28 28 28 27 27 28 29 29 29 28 28 29 29 30 31 32 33 32 30 29 28 25 23 23 24 26 30 32 33 35 37 39 38
31 30 31 31 31 32 31 29 27 26 26 26 26 26 27 30 32 32 32 31 31 31 30 30 30 30 31 31 30 30 29 29 30 29 29 29 29 30 30 30 31 31 31 31 32 34 36 34 32 32 31 28 26 26 25 26 28 29 30 33 35 36 35
32 31 31 30 30 30 30 29 27 26 26 25 25 25 27 29 31 32 32 31 30 30 30 30 30 31 32 32 31 30 29 28 28 29 30 32 31 31 31 31 31 32 32 33 33 35 36 36 35 35 35 33 31 30 29 28 28 28 29 31 33 35 36
32 31 31 30 29 28 28 27 25 24 24 24 24 24 26 28 30 30 30 29 28 28 28 28 28 30 30 31 31 31 29 28 27 27 29 31 32 32 33 33 32 31 31 33 33 35 36 37 37 37 37 37 35 35 35 33 32 32 31 31 33 37 39
31 31 31 31 29 28 28 27 24 22 22 22 21 22 25 27 28 28 27 26 25 23 23 23 23 23 25 28 29 29 28 27 28 28 28 28 28 29 32 34 32 31 31 32 33 34 35 36 36 35 35 35 33 34 34 34 37 39 37 35 37 41 43
30 29 29 29 29 28 28 27 25 22 21 20 19 19 22 24 25 26 25 24 23 22 22 22 22 22 24 27 28 28 28 27 26 26 26 27 28 29 31 32 30 29 31 32 33 34 35 35 36 36 36 35 33 31 29 29 34 37 35 35 39 43 43
28 28 27 27 27 26 26 26 25 23 21 19 17 17 19 22 23 24 24 23 23 24 24 24 24 24 26 27 28 27 25 23 21 23 25 27 29 31 32 30 27 27 29 31 32 34 34 34 35 35 36 36 35 34 32 32 35 35 33 33 36 39 38
27 27 27 26 26 25 25 24 24 22 20 18 16 16 18 20 21 22 23 23 24 26 26 25 25 25 24 24 22 20 19 18 19 23 26 27 28 31 31 29 28 29 29 30 33 34 34 34 35 34 35 35 34 33 32 32 34 35 35 36 36 36 36
26 27 27 26 25 25 23 22 22 21 20 18 16 14 16 18 21 22 23 24 24 25 25 24 24 23 22 20 19 18 18 18 18 20 23 25 25 27 26 25 26 28 29 31 33 34 33 33 34 33 33 34 33 33 31 31 32 33 35 37 39 39 39
26 26 26 25 24 23 22 20 19 19 19 19 17 15 14 17 20 20 21 22 23 23 23 24 23 23 22 20 19 19 19 18 16 17 21 24 25 25 24 24 25 27 28 28 29 28 28 29 30 31 32 33 32 31 30 29 29 30 31 33 35 38 40
24 23 24 23 22 21 21 20 19 18 18 19 19 17 16 17 18 19 19 21 22 23 24 25 25 24 21 18 17 17 17 17 18 20 24 26 25 25 25 25 27 28 29 28 27 26 27 28 29 31 33 34 34 32 29 27 25 25 26 29 30 32 34
21 21 21 21 21 20 20 19 19 18 18 19 19 19 17 17 17 17 17 19 22 23 24 25 25 24 21 19 18 18 18 18 20 25 27 26 25 25 26 26 27 27 27 27 27 27 29 30 31 32 33 33 32 30 27 24 23 23 25 27 29 31 33
18 18 19 19 20 21 21 20 19 20 20 20 18 16 15 14 14 14 16 19 21 22 22 22 21 21 20 19 20 21 23 24 26 29 30 27 25 26 26 26 26 26 26 27 27 27 28 29 30 29 29 28 26 24 23 23 24 26 27 28 30 31 31
16 17 18 20 22 23 23 22 22 22 21 19 15 13 13 14 16 18 20 21 20 20 19 18 17 18 19 20 21 22 25 27 29 29 28 26 24 23 24 23 23 23 24 25 25 25 26 26 26 24 24 23 23 24 25 25 26 27 29 30 32 32 31
19 21 23 25 25 26 26 26 25 23 21 18 15 15 16 18 21 23 23 23 22 22 21 20 21 22 23 24 25 25 26 27 26 25 24 23 21 20 20 19 19 19 20 20 21 22 22 22 23 23 24 24 24 25 25 24 24 26 28 29 30 33 34
24 25 26 27 28 28 29 29 27 25 24 21 18 17 19 21 23 25 26 27 26 25 24 23 24 25 25 24 24 23 23 22 20 19 19 18 17 17 17 18 18 18 19 20 21 22 24 25 25 25 25 24 23 22 22 21 21 23 25 26 27 30 33
24 25 26 27 28 28 29 30 29 26 24 22 20 20 22 23 24 26 27 28 27 25 25 25 25 25 24 22 20 18 17 17 16 16 17 17 17 17 18 19 19 19 19 20 21 23 25 25 24 24 23 22 22 22 21 21 21 22 24 25 26 27 28
24 25 26 27 29 28 28 29 29 26 24 23 23 23 23 23 25 27 27 26 24 23 24 25 25 24 22 21 18 15 14 15 16 18 19 19 19 19 19 20 20 18 17 17 18 19 21 22 22 22 20 19 20 21 20 19 20 21 22 23 24 24 25
25 25 25 26 28 29 28 28 26 25 24 23 23 23 22 23 26 28 27 25 23 23 24 25 25 25 24 22 20 18 16 16 17 19 20 20 20 20 20 19 19 18 19 20 20 20 20 21 21 21 20 17 18 19 18 17 18 20 23 25 27 29 31
25 24 23 23 24 26 27 26 25 24 23 22 22 22 22 23 26 28 28 26 24 24 25 25 26 26 25 22 20 18 16 17 19 20 20 20 21 21 20 18 18 18 19 22 23 23 22 22 22 22 22 21 20 20 20 19 18 18 20 22 24 26 28
23 22 22 21 21 22 23 23 23 22 22 22 23 24 23 25 27 29 28 25 23 24 25 25 25 25 23 21 19 17 17 18 19 19 19 20 21 20 19 18 18 19 20 21 22 22 23 23 22 21 21 21 21 21 20 20 20 18 17 17 18 19 19
23 22 21 20 19 19 20 21 21 21 21 23 25 25 24 25 27 27 24 22 22 23 23 22 20 19 17 16 16 17 17 18 18 18 19 20 20 21 20 20 19 20 20 20 19 18 18 19 18 18 17 17 18 18 16 16 17 17 16 16 15 14 15
25 22 19 18 18 18 19 19 19 19 19 21 22 22 22 23 23 23 22 21 20 19 18 17 17 16 16 16 16 17 17 17 17 17 18 19 21 22 22 21 20 20 20 19 18 17 17 18 18 19 19 19 18 18 17 16 15 14 14 14 14 12 12
24 21 19 18 17 17 16 16 16 16 17 19 21 20 19 21 22 22 21 20 18 17 16 18 20 20 20 20 20 20 20 19 19 19 19 20 21 22 22 21 20 19 19 18 18 18 18 18 19 19 19 20 21 20 19 18 16 13 13 15 14 12 12
Wind_Direction
315 295 281 273 270 265 261 257 252 249 248 249 251 254 256 257 258 258 255 252 251 251 251 250 249 248 248 248 248 248 248 248 248 248 247 246 246 245 245 245 244 249 255 256 254 253 254 253 251 248 249 252 253 253 251 250 249 248 246 245 244 243 242
354 339 322 307 295 287 279 272 268 264 262 261 261 261 262 263 264 264 263 260 256 252 251 250 249 248 247 247 248 248 247 247 246 245 245 243 243 244 244 243 243 247 252 255 255 252 251 252 253 252 251 252 254 256 254 252 250 250 249 248 247 245 244
359 352 342 332 322 312 301 291 283 277 273 271 269 269 268 268 268 267 267 266 264 260 257 255 254 252 250 249 249 250 249 248 247 245 243 242 240 240 241 239 239 241 245 251 253 251 250 251 252 253 254 254 255 255 254 253 252 250 249 248 247 246 245
346 342 336 332 328 323 318 311 303 296 291 285 281 278 276 273 270 268 267 267 266 265 263 262 260 259 258 255 253 253 253 252 252 250 248 247 245 244 243 241 239 239 242 247 251 251 249 248 249 252 253 253 252 251 251 250 248 246 245 245 245 246 246
334 330 326 323 320 317 314 309 306 304 301 298 295 292 289 284 279 275 271 269 268 266 265 264 263 262 263 262 261 259 258 256 255 253 252 251 251 250 249 247 246 245 245 248 250 251 248 243 242 244 246 245 244 245 247 248 246 243 244 245 246 247 248
328 324 320 319 315 312 310 305 301 300 297 296 295 293 292 289 286 284 281 278 275 272 269 266 265 265 264 264 265 265 264 263 261 259 257 255 254 253 252 251 250 248 247 247 249 250 249 244 239 238 239 238 238 241 244 247 248 246 246 246 247 248 249
322 320 317 315 312 308 305 302 299 297 296 294 292 291 290 288 285 283 282 280 279 277 275 273 270 269 267 266 266 266 265 265 265 264 263 262 260 258 256 255 253 251 249 247 248 249 250 249 245 242 242 242 242 244 245 248 250 250 250 250 251 252 252
318 317 314 312 310 308 305 302 298 296 293 291 290 289 288 287 285 283 280 278 277 276 277 277 275 272 271 269 268 267 267 267 266 266 266 265 264 263 261 260 258 257 255 254 253 252 252 253 253 251 250 249 248 248 248 248 251 254 256 256 257 258 258
316 313 310 309 308 306 304 303 301 298 295 293 290 287 286 284 283 282 280 278 277 276 276 276 276 274 271 270 269 268 267 267 267 267 267 265 263 263 264 263 262 262 261 260 259 259 259 259 258 257 256 255 253 253 254 253 252 255 258 260 261 262 261
313 310 308 306 304 303 301 300 299 298 296 295 293 290 287 284 281 280 280 280 279 279 277 276 275 274 273 271 270 268 268 267 266 265 265 265 264 263 263 263 262 262 261 261 261 262 262 262 262 261 260 259 259 258 258 255 251 252 255 258 261 263 264
310 308 305 303 302 300 299 298 296 295 293 292 290 289 287 284 282 281 280 280 280 278 277 277 275 275 274 273 270 268 267 266 266 265 264 263 262 262 261 261 260 260 260 260 261 261 261 260 261 262 262 262 261 258 256 253 252 253 254 255 258 262 265
311 309 306 303 301 300 298 297 295 293 291 289 286 284 283 281 280 280 279 279 279 277 276 276 276 275 274 273 272 271 268 265 264 264 264 264 262 261 259 259 258 258 258 257 258 260 259 257 258 258 258 259 261 259 257 255 253 252 253 254 257 261 265
310 309 307 305 303 301 300 299 296 293 290 288 284 282 280 279 277 277 277 276 275 275 275 274 273 273 272 271 271 271 270 268 266 264 263 263 263 262 260 258 257 256 256 256 256 257 258 257 256 255 252 249 250 252 253 253 253 253 253 254 257 261 265
309 308 306 304 303 302 301 301 300 297 293 289 285 282 279 277 276 275 274 273 272 272 272 272 272 271 271 271 270 270 271 271 271 269 265 262 260 260 260 258 257 255 254 254 255 256 258 258 255 255 253 247 243 244 244 245 247 250 252 254 258 262 265
310 308 305 304 302 300 299 299 299 298 295 292 288 284 279 276 275 275 274 274 273 272 271 270 270 269 269 270 271 271 270 269 270 270 268 266 262 260 260 258 257 256 255 255 255 255 258 259 258 257 256 252 247 245 243 243 244 246 248 250 254 257 259
309 308 306 305 304 303 300 298 297 295 293 291 289 286 282 279 277 276 277 276 275 274 272 271 270 270 270 270 269 268 268 267 267 268 270 273 272 269 265 260 258 258 257 256 255 255 256 257 259 259 260 259 256 252 249 247 246 246 246 248 251 255 257
308 307 306 305 306 306 304 301 301 299 294 291 290 287 284 282 281 280 280 279 277 275 272 270 268 267 268 267 266 266 266 267 269 271 272 272 271 270 269 266 264 262 259 257 256 256 255 255 256 257 258 260 260 258 256 254 252 251 249 250 252 255 258
306 305 305 305 306 307 305 304 305 304 299 295 292 289 286 284 284 283 282 279 275 268 264 262 259 258 260 263 266 268 270 271 272 272 269 265 263 264 267 270 272 270 267 263 260 258 257 257 257 256 257 257 256 254 252 251 253 255 255 255 254 256 260
303 302 301 302 302 303 302 303 304 303 301 298 295 291 287 286 285 284 282 280 275 270 266 263 260 258 259 264 270 275 276 276 271 265 261 260 262 264 266 270 272 272 271 270 266 263 261 259 259 259 259 259 257 254 250 247 249 251 251 253 256 258 259
301 300 300 300 301 301 302 302 302 301 301 298 294 290 287 285 283 282 281 279 278 277 276 274 271 268 268 271 276 278 276 272 266 263 263 262 263 265 266 268 268 266 267 268 268 268 267 265 264 263 261 260 258 257 255 252 251 249 246 246 250 255 257
302 300 300 301 300 300 302 302 302 303 302 298 294 289 286 282 280 281 283 283 283 282 282 281 279 277 277 275 272 269 270 270 269 271 271 267 264 265 267 269 268 266 267 269 270 272 273 272 271 268 266 264 262 260 259 255 253 253 251 247 246 248 251
300 299 299 300 300 301 303 303 304 306 304 301 297 292 286 283 283 284 286 285 283 282 281 281 280 280 281 280 277 276 276 275 273 271 268 265 264 264 264 265 265 265 265 267 270 273 274 273 272 271 269 268 267 266 264 261 258 257 258 256 253 251 250
302 302 302 303 304 304 305 305 305 303 300 298 299 297 291 285 282 282 282 281 280 280 280 281 282 284 284 284 283 283 279 273 268 264 263 266 270 272 271 270 269 268 266 265 264 264 264 264 264 266 268 269 270 270 268 264 260 258 260 261 261 260 258
303 304 303 303 302 302 303 304 304 300 297 297 299 299 294 288 284 282 280 278 276 278 280 282 284 286 284 278 269 263 261 264 265 264 266 273 278 280 279 277 275 274 274 271 267 264 262 261 262 263 266 269 273 274 272 267 260 255 254 257 257 257 259
302 301 298 296 295 297 301 303 302 300 301 303 305 303 299 293 283 274 270 270 272 275 280 285 289 290 287 281 272 261 256 258 262 266 272 278 280 279 279 278 277 277 277 276 274 270 266 265 265 266 268 270 271 270 268 265 260 253 247 247 249 249 251
294 289 286 286 290 295 297 299 300 301 303 305 305 299 289 275 265 264 267 270 274 278 278 278 279 276 272 270 268 265 264 265 268 272 278 282 280 278 278 277 278 278 277 276 276 275 272 271 271 271 271 269 267 266 263 261 262 260 252 247 249 252 252
283 282 284 288 291 294 295 296 299 300 299 299 295 285 276 267 263 267 274 277 280 283 280 273 269 267 266 266 268 271 274 276 277 279 281 281 279 278 278 278 279 281 281 281 282 283 281 276 271 267 265 264 266 269 269 266 265 265 262 256 254 255 255
289 289 290 292 294 296 297 297 297 297 297 295 289 279 277 277 274 275 279 283 287 291 289 283 278 276 276 277 277 278 279 279 279 280 279 278 277 277 275 273 272 272 271 271 271 271 269 266 263 264 265 267 270 273 275 274 269 266 265 264 262 262 259
292 292 293 294 294 295 295 294 295 297 295 291 283 276 279 284 284 283 284 287 292 294 291 287 286 285 286 286 285 287 288 285 279 276 273 271 271 271 269 266 264 263 265 269 269 266 264 265 267 270 270 269 269 270 270 269 267 266 266 265 265 265 261
290 290 292 292 291 291 290 289 292 293 289 285 283 281 282 283 282 283 285 288 290 290 287 286 286 285 285 285 282 278 278 277 273 269 268 269 269 269 270 269 265 259 260 269 271 267 264 265 267 268 268 269 276 280 277 269 266 266 265 262 259 259 261
291 289 287 285 285 286 285 284 285 285 283 282 283 283 283 281 281 282 285 287 287 285 282 281 282 281 281 283 280 273 267 269 270 269 268 269 271 274 276 276 272 262 256 258 261 259 258 260 260 259 260 267 280 287 282 273 268 265 262 259 257 258 262
297 294 291 287 285 284 283 282 283 283 282 282 282 282 282 281 280 281 284 286 285 282 279 278 280 281 283 284 282 277 271 270 269 267 267 270 274 278 279 277 274 268 259 256 256 256 257 258 259 260 260 263 271 278 278 277 277 273 269 267 265 264 265
300 298 294 291 288 285 283 282 282 282 281 279 278 279 278 277 278 281 285 287 283 278 277 277 279 281 283 282 278 273 270 269 268 267 269 271 273 274 275 275 275 273 269 264 262 261 262 264 266 269 269 268 269 270 273 278 281 281 282 281 278 276 274
305 303 300 297 293 288 284 282 281 280 280 279 278 279 279 280 281 282 282 279 275 274 277 282 285 285 284 282 277 271 267 267 267 267 268 268 268 269 273 276 276 275 275 276 275 268 263 261 260 259 261 266 265 261 262 272 278 282 287 290 288 287 284
309 309 307 302 295 291 291 290 288 285 282 280 282 287 290 288 286 284 281 278 275 274 275 276 275 272 268 265 263 260 258 259 261 263 264 265 267 270 274 278 278 276 278 280 278 271 263 258 254 250 250 256 259 257 259 266 271 275 281 286 289 288 278
309 309 307 302 299 302 303 301 295 287 282 285 291 298 298 291 285 282 282 281 278 274 267 261 260 260 260 259 258 256 255 255 257 259 261 263 266 272 277 280 280 280 282 282 280 277 273 268 264 261 259 260 261 263 266 268 269 268 267 269 274 276 268